Mount Pleasant, IA

11:30 PM CDT on April 26, 2017 (GMT -0500)
Mount Pleasant Municipal

Weather History for KMPZ - March, 2013

Change the Weather History Date:

Friday, March 1, 2013

  Actual Average Record
Temperature  
Mean Temperature 32 °F -  
Max Temperature 34 °F 46 °F 76 °F (1992)
Min Temperature 29 °F 24 °F -15 °F (1962)
Degree Days  
Heating Degree Days 34    
Moisture  
Dew Point 21 °F    
Average Humidity 65    
Maximum Humidity 80    
Minimum Humidity 47    
Precipitation  
Precipitation 0.00 in - - ()
Sea Level Pressure  
Sea Level Pressure 30.18 in    
Wind  
Wind Speed 8 mph (North)    
Max Wind Speed 15 mph    
Max Gust Speed -    
Visibility 8 miles    
Events Snow    
Averages and records for this station are not official NWS values.
T = Trace of Precipitation, MM = Missing Value Source: NWS Daily Summary

Daily Weather History Graph

Daily Weather History Graph

Search for Another Location

Airport or City:

Trip Planner

Search our weather history database for the weather conditions in past years. The results will help you decide how hot, cold, wet, or windy it might be!

Date:

Astronomy

Mar. 01, 2013 Rise Set
Actual Time 6:39 AM CST 5:57 PM CST
Civil Twilight 6:12 AM CST 6:25 PM CST
Nautical Twilight 5:40 AM CST 6:56 PM CST
Astronomical Twilight 5:08 AM CST 7:28 PM CST
Moon 10:33 PM CST (3/1) 8:24 AM CST (3/1)
Length of Visible Light 12h 12m
Length of Day
11h 17m
Waning Gibbous, 83% of the Moon is Illuminated
Mar 1
Waning Gibbous
Mar 4
Last Quarter
Mar 11
New
Mar 19
First Quarter
Mar 27
Full

Hourly Weather History & Observations

Time (CST) Temp. Windchill Dew Point Humidity Pressure Visibility Wind Dir Wind Speed Gust Speed Precip Events Conditions
12:15 AM 32.0 °F 25.6 °F 26.4 °F 80% 30.10 in 2.5 mi NW 6.9 mph - N/A Snow Light Snow
12:35 AM 32.0 °F 25.6 °F 26.2 °F 79% 30.10 in 3.0 mi NW 6.9 mph - N/A Snow Light Snow
12:55 AM 32.0 °F 25.6 °F 26.2 °F 79% 30.10 in 4.0 mi NW 6.9 mph - N/A Snow Light Snow
1:15 AM 32.0 °F 24.8 °F 26.1 °F 79% 30.11 in 4.0 mi NW 8.1 mph - N/A Snow Light Snow
1:35 AM 31.8 °F 24.6 °F 26.1 °F 79% 30.11 in 4.0 mi NW 8.1 mph - N/A Snow Light Snow
1:55 AM 32.0 °F 26.4 °F 26.2 °F 79% 30.11 in 2.5 mi NW 5.8 mph - N/A Snow Light Snow
2:15 AM 32.0 °F 24.8 °F 26.2 °F 79% 30.10 in 2.5 mi NW 8.1 mph - N/A Snow Light Snow
2:35 AM 31.8 °F 25.4 °F 26.1 °F 79% 30.10 in 3.0 mi NW 6.9 mph - N/A Snow Light Snow
2:55 AM 31.8 °F 25.4 °F 26.1 °F 79% 30.10 in 4.0 mi NW 6.9 mph - N/A Snow Light Snow
3:35 AM 32.0 °F 24.8 °F 26.2 °F 79% 30.10 in 7.0 mi NNW 8.1 mph - N/A Snow Light Snow
3:55 AM 32.0 °F 24.2 °F 26.1 °F 79% 30.10 in 5.0 mi NNW 9.2 mph - N/A   Overcast
4:15 AM 32.0 °F 23.6 °F 26.1 °F 79% 30.10 in 5.0 mi NNW 10.4 mph - N/A   Overcast
4:35 AM 31.8 °F 23.9 °F 26.1 °F 79% 30.10 in 5.0 mi NNW 9.2 mph - N/A Snow Light Snow
4:55 AM 32.0 °F 24.8 °F 26.4 °F 80% 30.11 in 3.0 mi North 8.1 mph - N/A Snow Light Snow
5:15 AM 31.8 °F 22.8 °F 25.0 °F 76% 30.12 in 4.0 mi ENE 11.5 mph - N/A Snow Light Snow
5:35 AM 30.7 °F 21.4 °F 23.7 °F 75% 30.12 in 5.0 mi ENE 11.5 mph - N/A Snow Light Snow
6:15 AM 30.6 °F 21.8 °F 23.0 °F 74% 30.13 in 4.0 mi ENE 10.4 mph - N/A Snow Light Snow
6:35 AM 30.0 °F 21.7 °F 22.8 °F 75% 30.14 in 3.0 mi ENE 9.2 mph - N/A Snow Light Snow
6:55 AM 29.8 °F 26.3 °F 22.6 °F 75% 30.15 in 2.5 mi NE 3.5 mph - N/A Snow Light Snow
7:15 AM 30.0 °F 26.5 °F 23.0 °F 75% 30.15 in 2.0 mi NNE 3.5 mph - N/A Snow Light Snow
7:35 AM 30.0 °F - 23.0 °F 75% 30.16 in 2.5 mi Calm Calm - N/A Snow Light Snow
7:55 AM 30.2 °F 25.4 °F 23.5 °F 76% 30.17 in 5.0 mi North 4.6 mph - N/A Snow Light Snow
8:15 AM 30.7 °F 22.6 °F 21.7 °F 69% 30.18 in 4.0 mi North 9.2 mph - N/A Snow Light Snow
8:35 AM 30.6 °F 22.4 °F 21.4 °F 69% 30.18 in 3.0 mi North 9.2 mph - N/A Snow Light Snow
8:55 AM 30.7 °F 22.0 °F 21.7 °F 69% 30.18 in 3.0 mi North 10.4 mph - N/A Snow Light Snow
9:15 AM 31.1 °F 23.7 °F 21.6 °F 68% 30.18 in 2.0 mi North 8.1 mph - N/A Snow Light Snow
9:35 AM 31.6 °F 23.7 °F 21.2 °F 65% 30.18 in 7.0 mi North 9.2 mph - N/A   Overcast
9:55 AM 32.2 °F 22.7 °F 19.2 °F 59% 30.19 in 10.0 mi NNE 12.7 mph - N/A   Overcast
10:15 AM 32.4 °F 22.5 °F 19.2 °F 58% 30.19 in 10.0 mi North 13.8 mph - N/A   Overcast
10:35 AM 32.2 °F 22.3 °F 19.4 °F 59% 30.19 in 10.0 mi NNE 13.8 mph - N/A   Overcast
10:55 AM 32.0 °F 28.7 °F 19.4 °F 60% 30.20 in 10.0 mi NNE 3.5 mph - N/A   Overcast
11:15 AM 32.2 °F 24.4 °F 19.0 °F 58% 30.20 in 10.0 mi North 9.2 mph - N/A   Overcast
11:35 AM 32.5 °F 23.7 °F 18.5 °F 56% 30.20 in 10.0 mi NNE 11.5 mph - N/A   Overcast
12:15 PM 33.8 °F 25.8 °F 17.1 °F 50% 30.20 in 10.0 mi NNE 10.4 mph - N/A   Overcast
12:35 PM 34.3 °F 26.5 °F 16.3 °F 48% 30.19 in 10.0 mi NNE 10.4 mph - N/A   Overcast
12:55 PM 34.7 °F 25.5 °F 16.3 °F 47% 30.19 in 10.0 mi NNE 13.8 mph - N/A   Overcast
1:15 PM 33.6 °F 23.7 °F 16.2 °F 49% 30.18 in 10.0 mi North 15.0 mph - N/A   Overcast
1:35 PM 33.8 °F 24.8 °F 15.4 °F 47% 30.18 in 10.0 mi North 12.7 mph - N/A   Mostly Cloudy
1:55 PM 34.0 °F 25.5 °F 15.6 °F 47% 30.18 in 10.0 mi NNW 11.5 mph - N/A   Overcast
2:15 PM 33.8 °F 24.8 °F 16.0 °F 48% 30.18 in 10.0 mi NNW 12.7 mph - N/A   Overcast
2:35 PM 34.0 °F 25.5 °F 16.0 °F 48% 30.19 in 10.0 mi NNW 11.5 mph - N/A   Overcast
3:15 PM 33.6 °F 25.6 °F 15.8 °F 48% 30.19 in 10.0 mi North 10.4 mph - N/A   Overcast
3:35 PM 33.3 °F 26.4 °F 15.6 °F 48% 30.20 in 10.0 mi North 8.1 mph - N/A   Overcast
3:55 PM 33.3 °F 25.1 °F 16.2 °F 50% 30.20 in 10.0 mi NNW 10.4 mph - N/A   Overcast
4:15 PM 33.3 °F 25.7 °F 16.2 °F 50% 30.20 in 10.0 mi North 9.2 mph - N/A   Overcast
4:35 PM 32.9 °F 25.9 °F 18.0 °F 54% 30.21 in 10.0 mi NNE 8.1 mph - N/A   Overcast
4:55 PM 32.4 °F 23.5 °F 18.5 °F 57% 30.22 in 10.0 mi North 11.5 mph - N/A   Overcast
5:15 PM 32.2 °F 24.4 °F 18.7 °F 58% 30.22 in 10.0 mi North 9.2 mph - N/A   Overcast
5:35 PM 32.0 °F 24.8 °F 19.2 °F 59% 30.23 in 10.0 mi North 8.1 mph - N/A   Overcast
5:55 PM 32.0 °F 24.2 °F 19.9 °F 61% 30.23 in 10.0 mi North 9.2 mph - N/A Snow Light Snow
6:15 PM 32.0 °F 24.2 °F 20.1 °F 62% 30.23 in 10.0 mi North 9.2 mph - N/A   Overcast
6:35 PM 31.8 °F 24.6 °F 20.3 °F 62% 30.24 in 10.0 mi North 8.1 mph - N/A Snow Light Snow
6:55 PM 31.6 °F 23.7 °F 20.7 °F 64% 30.24 in 10.0 mi North 9.2 mph - N/A Snow Light Snow
7:15 PM 31.8 °F 23.3 °F 19.8 °F 61% 30.25 in 10.0 mi North 10.4 mph - N/A Snow Light Snow
7:35 PM 31.8 °F 24.6 °F 19.9 °F 62% 30.25 in 10.0 mi North 8.1 mph - N/A   Overcast
8:15 PM 31.5 °F 23.5 °F 19.9 °F 62% 30.25 in 10.0 mi North 9.2 mph - N/A   Overcast
8:35 PM 31.5 °F 23.5 °F 20.1 °F 63% 30.25 in 10.0 mi North 9.2 mph - N/A   Overcast
8:55 PM 31.1 °F 23.7 °F 20.3 °F 64% 30.26 in 10.0 mi North 8.1 mph - N/A   Overcast
9:15 PM 31.1 °F 23.1 °F 20.3 °F 64% 30.26 in 10.0 mi North 9.2 mph - N/A   Overcast
9:35 PM 31.1 °F 23.1 °F 20.3 °F 64% 30.26 in 10.0 mi North 9.2 mph - N/A   Overcast
9:55 PM 30.9 °F 23.5 °F 20.3 °F 65% 30.26 in 10.0 mi North 8.1 mph - N/A   Overcast
10:15 PM 30.9 °F 22.2 °F 19.9 °F 64% 30.26 in 10.0 mi North 10.4 mph - N/A   Overcast
10:35 PM 30.9 °F 22.8 °F 19.8 °F 63% 30.26 in 10.0 mi North 9.2 mph - N/A   Overcast
10:55 PM 30.7 °F 23.3 °F 20.1 °F 65% 30.26 in 10.0 mi North 8.1 mph - N/A   Overcast
11:15 PM 30.6 °F 23.1 °F 20.1 °F 65% 30.26 in 10.0 mi North 8.1 mph - N/A   Overcast
11:35 PM 30.2 °F 23.4 °F 20.3 °F 67% 30.26 in 10.0 mi NNW 6.9 mph - N/A   Overcast
11:55 PM 30.6 °F 23.8 °F 19.9 °F 65% 30.26 in 10.0 mi NNW 6.9 mph - N/A   Overcast